Weather in Demenevo

Russia / Perm Krai     56°43′58″N   56°11′00″E
temp.,
°C
wind,
m/s
gust,
m/s
humid.,
%
clouds,
%
prec.,
mm/h
press.,
hPa
HPBL,
m
28 february, sun
sun2823:00−15e51095100 0.7 1006342
02:00−15ene4895100 0.5 1005310
05:00−14ene5109495 0.7 1005363
08:00−15ene599495 0.2 1004358
11:00−13ne6109294 0.3 1005438
14:00−10ene5890100 0.2 1006553
17:00−10ne5892100 0.4 1007571
20:00−13ne4109394 0.1 1009378
1 march, mon
mon123:00−14ne489495 0.3 1010362
02:00−15ne489495 0.3 1012390
05:00−16ne479490 0.3 1014331
08:00−17ne489598 0.1 1015312
11:00−15ne469393 0.2 1017370
14:00−12ne3490100 0.0 1016412
17:00−11nne2288100 0.1 1017465
20:00−17e1198100 0.1 101720
2 march, tue
tue223:00−17sw229994 0.1 101720
02:00−19sw36100100 0.1 1015127
05:00−20ssw511100100 0.1 1013268
08:00−21ssw61299100 0.0 1011330
11:00−17s71395100 0.3 1008396
14:00−14ssw81394100 0.6 1005512
17:00−13ssw71393100 1.2 1002597
20:00−12ssw71393100 0.5 1001551
3 march, wed
wed323:00−11s61393100 0.8 1000457
02:00−10s61194100 0.8 998433
05:00−8ssw41095100 1.9 998360
08:00−6sw3697100 0.8 997191
11:00−7w359698 0.8 998247
14:00−3wsw4793100 0.1 998549
17:00−3w5892100 0.4 999741
20:00−7wnw41093100 0.2 1000407
4 march, thu
thu423:00−9w389686 0.3 1002257
02:00−12wnw349781 0.1 100285
05:00−14w339772 0.1 100346
08:00−13wsw369694 0.2 1004148
11:00−10sw479497 0.3 1003354
14:00−7sw5892100 0.1 1002601
17:00−6ssw61092100 0.3 1001684
20:00−7s71494100 0.6 998774